INFORMAÇÕES DO AERODROMO
Icao Aerodromo LIMF Nome do Aerodromo Turin Airport Cidade Torino
Código GPS LIMF Elevação Média 989 ft Tipo de Aerodromo Aeroporto Grande Porte

INFORMAÇÃO DE PISTA
Pista 18 Comprimento da Pista 10827 ft Largura da Pista 197 ft
Elevação da Pista 981 ft Distância de Area de Escape da Pista 2378 ft Orientação da Pista 183
Pista 36 Comprimento da Pista 10827 ft Largura da Pista 197 ft
Elevação da Pista 933 ft Distância de Area de Escape da Pista 1148 ft Orientação da Pista 3

FREQUÊNCIAS DO AERODROMO
Tipo APP Nome APP Frequência 23.44 MHZ
Tipo APP Nome APP Frequência 129.275 MHZ
Tipo ATIS Nome ATIS Frequência 120.475 MHZ
Tipo GND Nome GND Frequência 121.7 MHZ
Tipo TWR Nome TWR Frequência 118.5 MHZ

INFORMAÇÕES DE NAVEGAÇÃO PRÓXIMO AO AERODROMO
Tipo TACAN Nome Caselle Frequência 109500 KHZ
Tipo NDB Nome Caselle Frequência 357 KHZ
Tipo VOR-DME Nome Caselle Frequência 116750 KHZ
Tipo VOR-DME Nome Torino Frequência 114500 KHZ
Tipo NDB Nome Torino Frequência 393 KHZ

Informações de Meteorologia(METAR atual)
METAR DE LIMF
ADDS - METARS form results

(0201 UTC 10 December 2019)
Data provider http://aviationweather.gov/metar/data/
 
METAR text: LIMF 100150Z VRB02KT CAVOK 04/M01 Q1012
Conditions at: LIMF (TORINO/CASELLE , IT) observed 0150 UTC 10 December 2019
Temperature: 4.0°C (39°F)
Dewpoint: -1.0°C (30°F) [RH = 70%]
Pressure (altimeter): 29.88 inches Hg (1012.0 mb)
Winds: variable direction winds at 2 MPH (2 knots; 1.0 m/s)
Visibility: 6 or more miles (10+ km)
Ceiling: ceiling and visibility are OK
Clouds: unknown
Weather: no significant weather observed at this time

METAR text: LIMF 100120Z VRB03KT CAVOK 02/00 Q1012
Conditions at: LIMF (TORINO/CASELLE , IT) observed 0120 UTC 10 December 2019
Temperature: 2.0°C (36°F)
Dewpoint: 0.0°C (32°F) [RH = 87%]
Pressure (altimeter): 29.88 inches Hg (1012.0 mb)
Winds: variable direction winds at 3 MPH (3 knots; 1.5 m/s)
Visibility: 6 or more miles (10+ km)
Ceiling: ceiling and visibility are OK
Clouds: unknown
Weather: no significant weather observed at this time

Forecast for: LIMF (TORINO/CASELLE , IT)
Text: TAF LIMF 092300Z 1000/1024 30010KT CAVOK
Forecast period: 0000 UTC 10 December 2019 to 0000 UTC 11 December 2019
Forecast type: FROM: standard forecast or significant change
Winds: from the WNW (300 degrees) at 12 MPH (10 knots; 5.1 m/s)
Visibility: 6 or more miles 10+ km)
Ceiling: unknown
Clouds: missing
Weather: NSW  (no significant weather)

MAPA DO AERODROMO


Desenvolvido por Virtual Airlines Manager




Modificado por Servidor Brasil Amigos